Year,Month,Day,Hour,Minute,Value (Times are PST for temperature in C)
2010,12,14,00,00,8.60
2010,12,14,00,01,8.60
2010,12,14,00,02,8.60
2010,12,14,00,03,8.60
2010,12,14,00,04,8.60
2010,12,14,00,05,8.60
2010,12,14,00,06,8.60
2010,12,14,00,07,8.60
2010,12,14,00,08,8.60
2010,12,14,00,09,8.60
2010,12,14,00,10,8.60
2010,12,14,00,11,8.60
2010,12,14,00,12,8.60
2010,12,14,00,13,8.60
2010,12,14,00,14,8.60
2010,12,14,00,15,8.60
2010,12,14,00,16,8.60
2010,12,14,00,17,8.60
2010,12,14,00,18,8.70
2010,12,14,00,19,8.60
2010,12,14,00,20,8.60
2010,12,14,00,21,8.60
2010,12,14,00,22,8.60
2010,12,14,00,23,8.50
2010,12,14,00,24,8.50
2010,12,14,00,25,8.40
2010,12,14,00,26,8.30
2010,12,14,00,27,8.30
2010,12,14,00,28,8.20
2010,12,14,00,29,8.00
2010,12,14,00,30,7.90
2010,12,14,00,31,7.70
2010,12,14,00,32,7.60
2010,12,14,00,33,7.50
2010,12,14,00,34,7.40
2010,12,14,00,35,7.30
2010,12,14,00,36,7.20
2010,12,14,00,37,7.10
2010,12,14,00,38,7.00
2010,12,14,00,39,6.90
2010,12,14,00,40,6.80
2010,12,14,00,41,6.70
2010,12,14,00,42,6.60
2010,12,14,00,43,6.60
2010,12,14,00,44,6.50
2010,12,14,00,45,6.40
2010,12,14,00,46,6.40
2010,12,14,00,47,6.30
2010,12,14,00,48,6.20
2010,12,14,00,49,6.10
2010,12,14,00,50,6.10
2010,12,14,00,51,6.00
2010,12,14,00,52,6.00
2010,12,14,00,53,5.90
2010,12,14,00,54,5.80
2010,12,14,00,55,5.80
2010,12,14,00,56,5.70
2010,12,14,00,57,5.70
2010,12,14,00,58,5.70
2010,12,14,00,59,5.70
2010,12,14,01,00,5.60
2010,12,14,01,01,5.60
2010,12,14,01,02,5.50
2010,12,14,01,03,5.50
2010,12,14,01,04,5.40
2010,12,14,01,05,5.40
2010,12,14,01,06,5.40
2010,12,14,01,07,5.30
2010,12,14,01,08,5.30
2010,12,14,01,09,5.30
2010,12,14,01,10,5.30
2010,12,14,01,11,5.30
2010,12,14,01,12,5.40
2010,12,14,01,13,5.40
2010,12,14,01,14,5.40
2010,12,14,01,15,5.40
2010,12,14,01,16,5.40
2010,12,14,01,17,5.40
2010,12,14,01,18,5.40
2010,12,14,01,19,5.40
2010,12,14,01,20,5.40
2010,12,14,01,21,5.40
2010,12,14,01,22,5.40
2010,12,14,01,23,5.40
2010,12,14,01,24,5.40
2010,12,14,01,25,5.40
2010,12,14,01,26,5.40
2010,12,14,01,27,5.30
2010,12,14,01,28,5.30
2010,12,14,01,29,5.30
2010,12,14,01,30,5.30
2010,12,14,01,31,5.30
2010,12,14,01,32,5.30
2010,12,14,01,33,5.30
2010,12,14,01,34,5.30
2010,12,14,01,35,5.30
2010,12,14,01,36,5.30
2010,12,14,01,37,5.30
2010,12,14,01,38,5.20
2010,12,14,01,39,5.20
2010,12,14,01,40,5.20
2010,12,14,01,41,5.20
2010,12,14,01,42,5.20
2010,12,14,01,43,5.20
2010,12,14,01,44,5.20
2010,12,14,01,45,5.20
2010,12,14,01,46,5.30
2010,12,14,01,47,5.30
2010,12,14,01,48,5.30
2010,12,14,01,49,5.30
2010,12,14,01,50,5.30
2010,12,14,01,51,5.30
2010,12,14,01,52,5.30
2010,12,14,01,53,5.30
2010,12,14,01,54,5.30
2010,12,14,01,55,5.20
2010,12,14,01,56,5.20
2010,12,14,01,57,5.20
2010,12,14,01,58,5.20
2010,12,14,01,59,5.20
2010,12,14,02,00,5.20
2010,12,14,02,01,5.20
2010,12,14,02,02,5.10
2010,12,14,02,03,5.10
2010,12,14,02,04,5.10
2010,12,14,02,05,5.10
2010,12,14,02,06,5.00
2010,12,14,02,07,5.00
2010,12,14,02,08,5.00
2010,12,14,02,09,5.00
2010,12,14,02,10,4.90
2010,12,14,02,11,4.90
2010,12,14,02,12,4.90
2010,12,14,02,13,4.90
2010,12,14,02,14,4.90
2010,12,14,02,15,4.80
2010,12,14,02,16,4.80
2010,12,14,02,17,4.80
2010,12,14,02,18,4.80
2010,12,14,02,19,4.70
2010,12,14,02,20,4.70
2010,12,14,02,21,4.70
2010,12,14,02,22,4.70
2010,12,14,02,23,4.70
2010,12,14,02,24,4.70
2010,12,14,02,25,4.80
2010,12,14,02,26,4.90
2010,12,14,02,27,5.00
2010,12,14,02,28,5.00
2010,12,14,02,29,5.00
2010,12,14,02,30,5.00
2010,12,14,02,31,5.00
2010,12,14,02,32,4.90
2010,12,14,02,33,4.90
2010,12,14,02,34,4.90
2010,12,14,02,35,5.00
2010,12,14,02,36,5.00
2010,12,14,02,37,5.10
2010,12,14,02,38,5.10
2010,12,14,02,39,5.20
2010,12,14,02,40,5.20
2010,12,14,02,41,5.20
2010,12,14,02,42,5.20
2010,12,14,02,43,5.20
2010,12,14,02,44,5.20
2010,12,14,02,45,5.20
2010,12,14,02,46,5.30
2010,12,14,02,47,5.40
2010,12,14,02,48,5.40
2010,12,14,02,49,5.40
2010,12,14,02,50,5.40
2010,12,14,02,51,5.40
2010,12,14,02,52,5.30
2010,12,14,02,53,5.30
2010,12,14,02,54,5.30
2010,12,14,02,55,5.30
2010,12,14,02,56,5.30
2010,12,14,02,57,5.20
2010,12,14,02,58,5.20
2010,12,14,02,59,5.20
2010,12,14,03,00,5.20
2010,12,14,03,01,5.10
2010,12,14,03,02,5.10
2010,12,14,03,03,5.10
2010,12,14,03,04,5.00
2010,12,14,03,05,5.00
2010,12,14,03,06,5.00
2010,12,14,03,07,4.90
2010,12,14,03,08,4.90
2010,12,14,03,09,4.90
2010,12,14,03,10,4.90
2010,12,14,03,11,4.80
2010,12,14,03,12,4.80
2010,12,14,03,13,4.70
2010,12,14,03,14,4.70
2010,12,14,03,15,4.60
2010,12,14,03,16,4.60
2010,12,14,03,17,4.60
2010,12,14,03,18,4.50
2010,12,14,03,19,4.50
2010,12,14,03,20,4.50
2010,12,14,03,21,4.40
2010,12,14,03,22,4.40
2010,12,14,03,23,4.40
2010,12,14,03,24,4.30
2010,12,14,03,25,4.30
2010,12,14,03,26,4.20
2010,12,14,03,27,4.10
2010,12,14,03,28,4.10
2010,12,14,03,29,4.10
2010,12,14,03,30,4.00
2010,12,14,03,31,4.00
2010,12,14,03,32,4.00
2010,12,14,03,33,3.90
2010,12,14,03,34,3.90
2010,12,14,03,35,3.90
2010,12,14,03,36,3.80
2010,12,14,03,37,3.80
2010,12,14,03,38,3.80
2010,12,14,03,39,3.80
2010,12,14,03,40,3.80
2010,12,14,03,41,3.80
2010,12,14,03,42,3.70
2010,12,14,03,43,3.70
2010,12,14,03,44,3.70
2010,12,14,03,45,3.70
2010,12,14,03,46,3.70
2010,12,14,03,47,3.70
2010,12,14,03,48,3.70
2010,12,14,03,49,3.70
2010,12,14,03,50,3.70
2010,12,14,03,51,3.70
2010,12,14,03,52,3.60
2010,12,14,03,53,3.60
2010,12,14,03,54,3.60
2010,12,14,03,55,3.60
2010,12,14,03,56,3.60
2010,12,14,03,57,3.60
2010,12,14,03,58,3.70
2010,12,14,03,59,3.70
2010,12,14,04,00,3.70
2010,12,14,04,01,3.70
2010,12,14,04,02,3.70
2010,12,14,04,03,3.70
2010,12,14,04,04,3.70
2010,12,14,04,05,3.70
2010,12,14,04,06,3.70
2010,12,14,04,07,3.70
2010,12,14,04,08,3.70
2010,12,14,04,09,3.80
2010,12,14,04,10,3.80
2010,12,14,04,11,3.90
2010,12,14,04,12,3.90
2010,12,14,04,13,3.90
2010,12,14,04,14,3.90
2010,12,14,04,15,3.90
2010,12,14,04,16,3.90
2010,12,14,04,17,3.90
2010,12,14,04,18,4.00
2010,12,14,04,19,4.00
2010,12,14,04,20,4.00
2010,12,14,04,21,4.00
2010,12,14,04,22,3.90
2010,12,14,04,23,3.90
2010,12,14,04,24,3.80
2010,12,14,04,25,3.80
2010,12,14,04,26,3.70
2010,12,14,04,27,3.70
2010,12,14,04,28,3.70
2010,12,14,04,29,3.60
2010,12,14,04,30,3.60
2010,12,14,04,31,3.60
2010,12,14,04,32,3.50
2010,12,14,04,33,3.50
2010,12,14,04,34,3.40
2010,12,14,04,35,3.40
2010,12,14,04,36,3.40
2010,12,14,04,37,3.30
2010,12,14,04,38,3.30
2010,12,14,04,39,3.30
2010,12,14,04,40,3.30
2010,12,14,04,41,3.30
2010,12,14,04,42,3.30
2010,12,14,04,43,3.30
2010,12,14,04,44,3.30
2010,12,14,04,45,3.30
2010,12,14,04,46,3.30
2010,12,14,04,47,3.20
2010,12,14,04,48,3.20
2010,12,14,04,49,3.20
2010,12,14,04,50,3.20
2010,12,14,04,51,3.20
2010,12,14,04,52,3.20
2010,12,14,04,53,3.20
2010,12,14,04,54,3.20
2010,12,14,04,55,3.20
2010,12,14,04,56,3.20
2010,12,14,04,57,3.30
2010,12,14,04,58,3.30
2010,12,14,04,59,3.30
2010,12,14,05,00,3.30
2010,12,14,05,01,3.30
2010,12,14,05,02,3.30
2010,12,14,05,03,3.30
2010,12,14,05,04,3.30
2010,12,14,05,05,3.30
2010,12,14,05,06,3.30
2010,12,14,05,07,3.20
2010,12,14,05,08,3.20
2010,12,14,05,09,3.20
2010,12,14,05,10,3.20
2010,12,14,05,11,3.20
2010,12,14,05,12,3.20
2010,12,14,05,13,3.20
2010,12,14,05,14,3.20
2010,12,14,05,15,3.20
2010,12,14,05,16,3.20
2010,12,14,05,17,3.20
2010,12,14,05,18,3.20
2010,12,14,05,19,3.20
2010,12,14,05,20,3.20
2010,12,14,05,21,3.20
2010,12,14,05,22,3.20
2010,12,14,05,23,3.20
2010,12,14,05,24,3.20
2010,12,14,05,25,3.20
2010,12,14,05,26,3.30
2010,12,14,05,27,3.20
2010,12,14,05,28,3.20
2010,12,14,05,29,3.20
2010,12,14,05,30,3.20
2010,12,14,05,31,3.20
2010,12,14,05,32,3.20
2010,12,14,05,33,3.20
2010,12,14,05,34,3.30
2010,12,14,05,35,3.40
2010,12,14,05,36,3.60
2010,12,14,05,37,3.70
2010,12,14,05,38,3.80
2010,12,14,05,39,3.90
2010,12,14,05,40,4.10
2010,12,14,05,41,4.10
2010,12,14,05,42,4.20
2010,12,14,05,43,4.20
2010,12,14,05,44,4.30
2010,12,14,05,45,4.30
2010,12,14,05,46,4.30
2010,12,14,05,47,4.30
2010,12,14,05,48,4.30
2010,12,14,05,49,4.30
2010,12,14,05,50,4.30
2010,12,14,05,51,4.30
2010,12,14,05,52,4.30
2010,12,14,05,53,4.30
2010,12,14,05,54,4.30
2010,12,14,05,55,4.30
2010,12,14,05,56,4.30
2010,12,14,05,57,4.30
2010,12,14,05,58,4.30
2010,12,14,05,59,4.20
2010,12,14,06,00,4.20
2010,12,14,06,01,4.20
2010,12,14,06,02,4.20
2010,12,14,06,03,4.20
2010,12,14,06,04,4.20
2010,12,14,06,05,4.10
2010,12,14,06,06,4.10
2010,12,14,06,07,4.10
2010,12,14,06,08,4.00
2010,12,14,06,09,3.90
2010,12,14,06,10,3.80
2010,12,14,06,11,3.80
2010,12,14,06,12,3.70
2010,12,14,06,13,3.70
2010,12,14,06,14,3.60
2010,12,14,06,15,3.60
2010,12,14,06,16,3.50
2010,12,14,06,17,3.40
2010,12,14,06,18,3.40
2010,12,14,06,19,3.30
2010,12,14,06,20,3.30
2010,12,14,06,21,3.30
2010,12,14,06,22,3.20
2010,12,14,06,23,3.20
2010,12,14,06,24,3.20
2010,12,14,06,25,3.10
2010,12,14,06,26,3.10
2010,12,14,06,27,3.10
2010,12,14,06,28,3.10
2010,12,14,06,29,3.10
2010,12,14,06,30,3.10
2010,12,14,06,31,3.10
2010,12,14,06,32,3.10
2010,12,14,06,33,3.10
2010,12,14,06,34,3.10
2010,12,14,06,35,3.00
2010,12,14,06,36,3.00
2010,12,14,06,37,3.00
2010,12,14,06,38,3.00
2010,12,14,06,39,3.10
2010,12,14,06,40,3.10
2010,12,14,06,41,3.10
2010,12,14,06,42,3.10
2010,12,14,06,43,3.10
2010,12,14,06,44,3.10
2010,12,14,06,45,3.00
2010,12,14,06,46,3.00
2010,12,14,06,47,3.00
2010,12,14,06,48,3.00
2010,12,14,06,49,3.10
2010,12,14,06,50,3.10
2010,12,14,06,51,3.10
2010,12,14,06,52,3.10
2010,12,14,06,53,3.10
2010,12,14,06,54,3.10
2010,12,14,06,55,3.10
2010,12,14,06,56,3.10
2010,12,14,06,57,3.10
2010,12,14,06,58,3.10
2010,12,14,06,59,3.10
2010,12,14,07,00,3.10
2010,12,14,07,01,3.20
2010,12,14,07,02,3.20
2010,12,14,07,03,3.30
2010,12,14,07,04,3.30
2010,12,14,07,05,3.30
2010,12,14,07,06,3.30
2010,12,14,07,07,3.40
2010,12,14,07,08,3.40
2010,12,14,07,09,3.40
2010,12,14,07,10,3.40
2010,12,14,07,11,3.40
2010,12,14,07,12,3.40
2010,12,14,07,13,3.40
2010,12,14,07,14,3.40
2010,12,14,07,15,3.50
2010,12,14,07,16,3.40
2010,12,14,07,17,3.50
2010,12,14,07,18,3.50
2010,12,14,07,19,3.50
2010,12,14,07,20,3.50
2010,12,14,07,21,3.50
2010,12,14,07,22,3.50
2010,12,14,07,23,3.50
2010,12,14,07,24,3.60
2010,12,14,07,25,3.60
2010,12,14,07,26,3.60
2010,12,14,07,27,3.60
2010,12,14,07,28,3.60
2010,12,14,07,29,3.60
2010,12,14,07,30,3.60
2010,12,14,07,31,3.60
2010,12,14,07,32,3.60
2010,12,14,07,33,3.50
2010,12,14,07,34,3.50
2010,12,14,07,35,3.50
2010,12,14,07,36,3.40
2010,12,14,07,37,3.40
2010,12,14,07,38,3.40
2010,12,14,07,39,3.40
2010,12,14,07,40,3.30
2010,12,14,07,41,3.30
2010,12,14,07,42,3.30
2010,12,14,07,43,3.20
2010,12,14,07,44,3.20
2010,12,14,07,45,3.10
2010,12,14,07,46,3.10
2010,12,14,07,47,3.00
2010,12,14,07,48,3.00
2010,12,14,07,49,3.00
2010,12,14,07,50,2.90
2010,12,14,07,51,2.90
2010,12,14,07,52,3.00
2010,12,14,07,53,3.00
2010,12,14,07,54,3.10
2010,12,14,07,55,3.20
2010,12,14,07,56,3.20
2010,12,14,07,57,3.20
2010,12,14,07,58,3.30
2010,12,14,07,59,3.30
2010,12,14,08,00,3.30
2010,12,14,08,01,3.30
2010,12,14,08,02,3.30
2010,12,14,08,03,3.30
2010,12,14,08,04,3.30
2010,12,14,08,05,3.30
2010,12,14,08,06,3.30
2010,12,14,08,07,3.30
2010,12,14,08,08,3.30
2010,12,14,08,09,3.30
2010,12,14,08,10,3.30
2010,12,14,08,11,3.30
2010,12,14,08,12,3.30
2010,12,14,08,13,3.30
2010,12,14,08,14,3.30
2010,12,14,08,15,3.30
2010,12,14,08,16,3.30
2010,12,14,08,17,3.30
2010,12,14,08,18,3.20
2010,12,14,08,19,3.20
2010,12,14,08,20,3.20
2010,12,14,08,21,3.20
2010,12,14,08,22,3.20
2010,12,14,08,23,3.20
2010,12,14,08,24,3.20
2010,12,14,08,25,3.20
2010,12,14,08,26,3.20
2010,12,14,08,27,3.20
2010,12,14,08,28,3.20
2010,12,14,08,29,3.20
2010,12,14,08,30,3.20
2010,12,14,08,31,3.20
2010,12,14,08,32,3.20
2010,12,14,08,33,3.20
2010,12,14,08,34,3.20
2010,12,14,08,35,3.20
2010,12,14,08,36,3.20
2010,12,14,08,37,3.20
2010,12,14,08,38,3.20
2010,12,14,08,39,3.20
2010,12,14,08,40,3.20
2010,12,14,08,41,3.20
2010,12,14,08,42,3.20
2010,12,14,08,43,3.20
2010,12,14,08,44,3.20
2010,12,14,08,45,3.20
2010,12,14,08,46,3.10
2010,12,14,08,47,3.10
2010,12,14,08,48,3.10
2010,12,14,08,49,3.10
2010,12,14,08,50,3.10
2010,12,14,08,51,3.10
2010,12,14,08,52,3.10
2010,12,14,08,53,3.00
2010,12,14,08,54,3.00
2010,12,14,08,55,3.00
2010,12,14,08,56,3.00
2010,12,14,08,57,3.00
2010,12,14,08,58,3.00
2010,12,14,08,59,3.00
2010,12,14,09,00,3.10
2010,12,14,09,01,3.10
2010,12,14,09,02,3.10
2010,12,14,09,03,3.00
2010,12,14,09,04,3.00
2010,12,14,09,05,3.00
2010,12,14,09,06,3.00
2010,12,14,09,07,3.00
2010,12,14,09,08,2.90
2010,12,14,09,09,2.90
2010,12,14,09,10,2.90
2010,12,14,09,11,2.90
2010,12,14,09,12,2.90
2010,12,14,09,13,2.90
2010,12,14,09,14,2.90
2010,12,14,09,15,2.90
2010,12,14,09,16,2.90
2010,12,14,09,17,2.90
2010,12,14,09,18,2.90
2010,12,14,09,19,2.80
2010,12,14,09,20,2.80
2010,12,14,09,21,2.80
2010,12,14,09,22,2.70
2010,12,14,09,23,2.70
2010,12,14,09,24,2.70
2010,12,14,09,25,2.60
2010,12,14,09,26,2.60
2010,12,14,09,27,2.60
2010,12,14,09,28,2.60
2010,12,14,09,29,2.60
2010,12,14,09,30,2.60
2010,12,14,09,31,2.60
2010,12,14,09,32,2.60
2010,12,14,09,33,2.70
2010,12,14,09,34,2.70
2010,12,14,09,35,2.70
2010,12,14,09,36,2.60
2010,12,14,09,37,2.60
2010,12,14,09,38,2.60
2010,12,14,09,39,2.60
2010,12,14,09,40,2.60
2010,12,14,09,41,2.70
2010,12,14,09,42,2.70
2010,12,14,09,43,2.70
2010,12,14,09,44,2.70
2010,12,14,09,45,2.80
2010,12,14,09,46,2.80
2010,12,14,09,47,2.90
2010,12,14,09,48,2.90
2010,12,14,09,49,3.00
2010,12,14,09,50,3.10
2010,12,14,09,51,3.10
2010,12,14,09,52,3.20
2010,12,14,09,53,3.20
2010,12,14,09,54,3.30
2010,12,14,09,55,3.30
2010,12,14,09,56,3.30
2010,12,14,09,57,3.30
2010,12,14,09,58,3.30
2010,12,14,09,59,3.40
2010,12,14,10,00,3.40
2010,12,14,10,01,3.40
2010,12,14,10,02,3.50
2010,12,14,10,03,3.50
2010,12,14,10,04,3.60
2010,12,14,10,05,3.60
2010,12,14,10,06,3.70
2010,12,14,10,07,3.70
2010,12,14,10,08,3.70
2010,12,14,10,09,3.70
2010,12,14,10,10,3.80
2010,12,14,10,11,3.80
2010,12,14,10,12,3.80
2010,12,14,10,13,3.80
2010,12,14,10,14,3.90
2010,12,14,10,15,3.90
2010,12,14,10,16,3.90
2010,12,14,10,17,4.00
2010,12,14,10,18,4.00
2010,12,14,10,19,4.00
2010,12,14,10,20,4.00
2010,12,14,10,21,4.00
2010,12,14,10,22,4.00
2010,12,14,10,23,4.00
2010,12,14,10,24,4.00
2010,12,14,10,25,4.00
2010,12,14,10,26,4.00
2010,12,14,10,27,4.00
2010,12,14,10,28,4.00
2010,12,14,10,29,4.00
2010,12,14,10,30,3.90
2010,12,14,10,31,3.90
2010,12,14,10,32,3.80
2010,12,14,10,33,3.80
2010,12,14,10,34,3.80
2010,12,14,10,35,3.80
2010,12,14,10,36,3.70
2010,12,14,10,37,3.70
2010,12,14,10,38,3.70
2010,12,14,10,39,3.70
2010,12,14,10,40,3.60
2010,12,14,10,41,3.50
2010,12,14,10,42,3.50
2010,12,14,10,43,3.40
2010,12,14,10,44,3.40
2010,12,14,10,45,3.30
2010,12,14,10,46,3.30
2010,12,14,10,47,3.30
2010,12,14,10,48,3.30
2010,12,14,10,49,3.30
2010,12,14,10,50,3.20
2010,12,14,10,51,3.20
2010,12,14,10,52,3.20
2010,12,14,10,53,3.20
2010,12,14,10,54,3.20
2010,12,14,10,55,3.20
2010,12,14,10,56,3.20
2010,12,14,10,57,3.20
2010,12,14,10,58,3.20
2010,12,14,10,59,3.20
2010,12,14,11,00,3.20
2010,12,14,11,01,3.20
2010,12,14,11,02,3.20
2010,12,14,11,03,3.30
2010,12,14,11,04,3.30
2010,12,14,11,05,3.30
2010,12,14,11,06,3.30
2010,12,14,11,07,3.30
2010,12,14,11,08,3.30
2010,12,14,11,09,3.30
2010,12,14,11,10,3.30
2010,12,14,11,11,3.30
2010,12,14,11,12,3.20
2010,12,14,11,13,3.20
2010,12,14,11,14,3.20
2010,12,14,11,15,3.20
2010,12,14,11,16,3.20
2010,12,14,11,17,3.20
2010,12,14,11,18,3.20
2010,12,14,11,19,3.20
2010,12,14,11,20,3.20
2010,12,14,11,21,3.20
2010,12,14,11,22,3.20
2010,12,14,11,23,3.20
2010,12,14,11,24,3.20
2010,12,14,11,25,3.20
2010,12,14,11,26,3.20
2010,12,14,11,27,3.20
2010,12,14,11,28,3.20
2010,12,14,11,29,3.20
2010,12,14,11,30,3.20
2010,12,14,11,31,3.10
2010,12,14,11,32,3.10
2010,12,14,11,33,3.10
2010,12,14,11,34,3.10
2010,12,14,11,35,3.10
2010,12,14,11,36,3.10
2010,12,14,11,37,3.10
2010,12,14,11,38,3.10
2010,12,14,11,39,3.10
2010,12,14,11,40,3.10
2010,12,14,11,41,3.10
2010,12,14,11,42,3.10
2010,12,14,11,43,3.10
2010,12,14,11,44,3.10
2010,12,14,11,45,3.10
2010,12,14,11,46,3.10
2010,12,14,11,47,3.10
2010,12,14,11,48,3.10
2010,12,14,11,49,3.10
2010,12,14,11,50,3.10
2010,12,14,11,51,3.10
2010,12,14,11,52,3.10
2010,12,14,11,53,3.10
2010,12,14,11,54,3.10
2010,12,14,11,55,3.10
2010,12,14,11,56,3.10
2010,12,14,11,57,3.10
2010,12,14,11,58,3.10
2010,12,14,11,59,3.10
2010,12,14,12,00,3.20
2010,12,14,12,01,3.20
2010,12,14,12,02,3.20
2010,12,14,12,03,3.10
2010,12,14,12,04,3.10
2010,12,14,12,05,3.10
2010,12,14,12,06,3.00
2010,12,14,12,07,2.90
2010,12,14,12,08,2.90
2010,12,14,12,09,2.80
2010,12,14,12,10,2.80
2010,12,14,12,11,2.80
2010,12,14,12,12,2.70
2010,12,14,12,13,2.60
2010,12,14,12,14,2.60
2010,12,14,12,15,2.50
2010,12,14,12,16,2.50
2010,12,14,12,17,2.40
2010,12,14,12,18,2.40
2010,12,14,12,19,2.30
2010,12,14,12,20,2.30
2010,12,14,12,21,2.20
2010,12,14,12,22,2.20
2010,12,14,12,23,2.20
2010,12,14,12,24,2.20
2010,12,14,12,25,2.10
2010,12,14,12,26,2.10
2010,12,14,12,27,2.10
2010,12,14,12,28,2.00
2010,12,14,12,29,2.00
2010,12,14,12,30,1.90
2010,12,14,12,31,1.90
2010,12,14,12,32,1.90
2010,12,14,12,33,1.90
2010,12,14,12,34,1.80
2010,12,14,12,35,1.80
2010,12,14,12,36,1.80
2010,12,14,12,37,1.80
2010,12,14,12,38,1.80
2010,12,14,12,39,1.80
2010,12,14,12,40,1.80
2010,12,14,12,41,1.80
2010,12,14,12,42,1.90
2010,12,14,12,43,1.90
2010,12,14,12,44,1.90
2010,12,14,12,45,1.90
2010,12,14,12,46,2.00
2010,12,14,12,47,2.00
2010,12,14,12,48,2.00
2010,12,14,12,49,2.00
2010,12,14,12,50,2.00
2010,12,14,12,51,2.00
2010,12,14,12,52,2.00
2010,12,14,12,53,2.10
2010,12,14,12,54,2.10
2010,12,14,12,55,2.10
2010,12,14,12,56,2.10
2010,12,14,12,57,2.10
2010,12,14,12,58,2.20
2010,12,14,12,59,2.20
2010,12,14,13,00,2.20
2010,12,14,13,01,2.20
2010,12,14,13,02,2.20
2010,12,14,13,03,2.20
2010,12,14,13,04,2.20
2010,12,14,13,05,2.30
2010,12,14,13,06,2.30
2010,12,14,13,07,2.30
2010,12,14,13,08,2.40
2010,12,14,13,09,2.40
2010,12,14,13,10,2.40
2010,12,14,13,11,2.50
2010,12,14,13,12,2.50
2010,12,14,13,13,2.50
2010,12,14,13,14,2.50
2010,12,14,13,15,2.50
2010,12,14,13,16,2.50
2010,12,14,13,17,2.50
2010,12,14,13,18,2.50
2010,12,14,13,19,2.50
2010,12,14,13,20,2.50
2010,12,14,13,21,2.50
2010,12,14,13,22,2.40
2010,12,14,13,23,2.40
2010,12,14,13,24,2.40
2010,12,14,13,25,2.40
2010,12,14,13,26,2.40
2010,12,14,13,27,2.40
2010,12,14,13,28,2.40
2010,12,14,13,29,2.40
2010,12,14,13,30,2.40
2010,12,14,13,31,2.40
2010,12,14,13,32,2.40
2010,12,14,13,33,2.40
2010,12,14,13,34,2.40
2010,12,14,13,35,2.40
2010,12,14,13,36,2.40
2010,12,14,13,37,2.40
2010,12,14,13,38,2.40
2010,12,14,13,39,2.40
2010,12,14,13,40,2.40
2010,12,14,13,41,2.40
2010,12,14,13,42,2.50
2010,12,14,13,43,2.50
2010,12,14,13,44,2.50
2010,12,14,13,45,2.50
2010,12,14,13,46,2.60
2010,12,14,13,47,2.60
2010,12,14,13,48,2.60
2010,12,14,13,49,2.70
2010,12,14,13,50,2.70
2010,12,14,13,51,2.70
2010,12,14,13,52,2.80
2010,12,14,13,53,2.80
2010,12,14,13,54,2.80
2010,12,14,13,55,2.90
2010,12,14,13,56,2.90
2010,12,14,13,57,3.00
2010,12,14,13,58,3.00
2010,12,14,13,59,3.10
2010,12,14,14,00,3.10
2010,12,14,14,01,3.20
2010,12,14,14,02,3.20
2010,12,14,14,03,3.20
2010,12,14,14,04,3.30
2010,12,14,14,05,3.30
2010,12,14,14,06,3.30
2010,12,14,14,07,3.30
2010,12,14,14,08,3.30
2010,12,14,14,09,3.30
2010,12,14,14,10,3.30
2010,12,14,14,11,3.40
2010,12,14,14,12,3.40
2010,12,14,14,13,3.40
2010,12,14,14,14,3.40
2010,12,14,14,15,3.40
2010,12,14,14,16,3.40
2010,12,14,14,17,3.40
2010,12,14,14,18,3.40
2010,12,14,14,19,3.40
2010,12,14,14,20,3.50
2010,12,14,14,21,3.50
2010,12,14,14,22,3.50
2010,12,14,14,23,3.60
2010,12,14,14,24,3.60
2010,12,14,14,25,3.70
2010,12,14,14,26,3.70
2010,12,14,14,27,3.80
2010,12,14,14,28,3.80
2010,12,14,14,29,3.80
2010,12,14,14,30,3.80
2010,12,14,14,31,3.80
2010,12,14,14,32,3.80
2010,12,14,14,33,3.80
2010,12,14,14,34,3.80
2010,12,14,14,35,3.80
2010,12,14,14,36,3.80
2010,12,14,14,37,3.90
2010,12,14,14,38,3.90
2010,12,14,14,39,3.90
2010,12,14,14,40,4.00
2010,12,14,14,41,4.00
2010,12,14,14,42,4.00
2010,12,14,14,43,4.00
2010,12,14,14,44,4.00
2010,12,14,14,45,3.90
2010,12,14,14,46,3.90
2010,12,14,14,47,3.90
2010,12,14,14,48,3.90
2010,12,14,14,49,3.90
2010,12,14,14,50,3.90
2010,12,14,14,51,3.90
2010,12,14,14,52,3.90
2010,12,14,14,53,3.80
2010,12,14,14,54,3.80
2010,12,14,14,55,3.80
2010,12,14,14,56,3.80
2010,12,14,14,57,3.70
2010,12,14,14,58,3.70
2010,12,14,14,59,3.60
2010,12,14,15,00,3.60
2010,12,14,15,01,3.50
2010,12,14,15,02,3.50
2010,12,14,15,03,3.40
2010,12,14,15,04,3.30
2010,12,14,15,05,3.30
2010,12,14,15,06,3.30
2010,12,14,15,07,3.30
2010,12,14,15,08,3.20
2010,12,14,15,09,3.20
2010,12,14,15,10,3.20
2010,12,14,15,11,3.20
2010,12,14,15,12,3.20
2010,12,14,15,13,3.20
2010,12,14,15,14,3.20
2010,12,14,15,15,3.20
2010,12,14,15,16,3.20
2010,12,14,15,17,3.10
2010,12,14,15,18,3.10
2010,12,14,15,19,3.10
2010,12,14,15,20,3.10
2010,12,14,15,21,3.10
2010,12,14,15,22,3.10
2010,12,14,15,23,3.10
2010,12,14,15,24,3.10
2010,12,14,15,25,3.10
2010,12,14,15,26,3.10
2010,12,14,15,27,3.10
2010,12,14,15,28,3.10
2010,12,14,15,29,3.10
2010,12,14,15,30,3.10
2010,12,14,15,31,3.10
2010,12,14,15,32,3.10
2010,12,14,15,33,3.10
2010,12,14,15,34,3.10
2010,12,14,15,35,3.10
2010,12,14,15,36,3.10
2010,12,14,15,37,3.10
2010,12,14,15,38,3.10
2010,12,14,15,39,3.10
2010,12,14,15,40,3.10
2010,12,14,15,41,3.10
2010,12,14,15,42,3.00
2010,12,14,15,43,3.00
2010,12,14,15,44,3.00
2010,12,14,15,45,3.00
2010,12,14,15,46,3.00
2010,12,14,15,47,3.00
2010,12,14,15,48,2.90
2010,12,14,15,49,2.90
2010,12,14,15,50,2.90
2010,12,14,15,51,2.90
2010,12,14,15,52,2.90
2010,12,14,15,53,2.90
2010,12,14,15,54,2.90
2010,12,14,15,55,2.90
2010,12,14,15,56,2.90
2010,12,14,15,57,3.00
2010,12,14,15,58,3.00
2010,12,14,15,59,3.00
2010,12,14,16,00,3.00
2010,12,14,16,01,3.00
2010,12,14,16,02,3.00
2010,12,14,16,03,3.00
2010,12,14,16,04,3.10
2010,12,14,16,05,3.10
2010,12,14,16,06,3.10
2010,12,14,16,07,3.10
2010,12,14,16,08,3.10
2010,12,14,16,09,3.20
2010,12,14,16,10,3.10
2010,12,14,16,11,3.10
2010,12,14,16,12,3.10
2010,12,14,16,13,3.10
2010,12,14,16,14,3.10
2010,12,14,16,15,3.00
2010,12,14,16,16,3.00
2010,12,14,16,17,3.00
2010,12,14,16,18,3.00
2010,12,14,16,19,2.90
2010,12,14,16,20,2.90
2010,12,14,16,21,2.90
2010,12,14,16,22,2.90
2010,12,14,16,23,2.90
2010,12,14,16,24,2.90
2010,12,14,16,25,2.90
2010,12,14,16,26,2.90
2010,12,14,16,27,2.90
2010,12,14,16,28,2.80
2010,12,14,16,29,2.80
2010,12,14,16,30,2.80
2010,12,14,16,31,2.80
2010,12,14,16,32,2.80
2010,12,14,16,33,2.80
2010,12,14,16,34,2.80
2010,12,14,16,35,2.80
2010,12,14,16,36,2.70
2010,12,14,16,37,2.70
2010,12,14,16,38,2.70
2010,12,14,16,39,2.70
2010,12,14,16,40,2.70
2010,12,14,16,41,2.70
2010,12,14,16,42,2.60
2010,12,14,16,43,2.60
2010,12,14,16,44,2.60
2010,12,14,16,45,2.60
2010,12,14,16,46,2.60
2010,12,14,16,47,2.50
2010,12,14,16,48,2.50
2010,12,14,16,49,2.50
2010,12,14,16,50,2.50
2010,12,14,16,51,2.50
2010,12,14,16,52,2.50
2010,12,14,16,53,2.50
2010,12,14,16,54,2.50
2010,12,14,16,55,2.50
2010,12,14,16,56,2.50
2010,12,14,16,57,2.50
2010,12,14,16,58,2.40
2010,12,14,16,59,2.40
2010,12,14,17,00,2.40
2010,12,14,17,01,2.40
2010,12,14,17,02,2.40
2010,12,14,17,03,2.40
2010,12,14,17,04,2.40
2010,12,14,17,05,2.40
2010,12,14,17,06,2.40
2010,12,14,17,07,2.40
2010,12,14,17,08,2.40
2010,12,14,17,09,2.40
2010,12,14,17,10,2.40
2010,12,14,17,11,2.40
2010,12,14,17,12,2.40
2010,12,14,17,13,2.40
2010,12,14,17,14,2.40
2010,12,14,17,15,2.40
2010,12,14,17,16,2.40
2010,12,14,17,17,2.50
2010,12,14,17,18,2.50
2010,12,14,17,19,2.50
2010,12,14,17,20,2.60
2010,12,14,17,21,2.60
2010,12,14,17,22,2.70
2010,12,14,17,23,2.70
2010,12,14,17,24,2.70
2010,12,14,17,25,2.80
2010,12,14,17,26,2.80
2010,12,14,17,27,2.80
2010,12,14,17,28,2.80
2010,12,14,17,29,2.90
2010,12,14,17,30,2.90
2010,12,14,17,31,2.90
2010,12,14,17,32,2.90
2010,12,14,17,33,3.00
2010,12,14,17,34,3.00
2010,12,14,17,35,3.00
2010,12,14,17,36,3.00
2010,12,14,17,37,3.00
2010,12,14,17,38,3.00
2010,12,14,17,39,3.00
2010,12,14,17,40,3.00
2010,12,14,17,41,3.00
2010,12,14,17,42,3.00
2010,12,14,17,43,3.00
2010,12,14,17,44,3.00
2010,12,14,17,45,3.00
2010,12,14,17,46,3.00
2010,12,14,17,47,3.00
2010,12,14,17,48,2.90
2010,12,14,17,49,2.90
2010,12,14,17,50,2.90
2010,12,14,17,51,2.90
2010,12,14,17,52,2.90
2010,12,14,17,53,2.80
2010,12,14,17,54,2.80
2010,12,14,17,55,2.80
2010,12,14,17,56,2.80
2010,12,14,17,57,2.80
2010,12,14,17,58,2.80
2010,12,14,17,59,2.70
2010,12,14,18,00,2.70
2010,12,14,18,01,2.70
2010,12,14,18,02,2.70
2010,12,14,18,03,2.70
2010,12,14,18,04,2.70
2010,12,14,18,05,2.60
2010,12,14,18,06,2.60